Location: Austin
(30.3000°N, 97.7500°W)
Time: 07:04:41
(UTC-05:00)

Cosmos 2344 - Pass Details

Date: 16 June 2025
Orbit: 1200 x 3043 km, 63.3° (Epoch: 07 July)

Event Time Altitude Azimuth Distance (km) Brightness Sun altitude
Rises 01:08:25 0° 331° (NNW) 4,490 7.3 -36.0°
Reaches altitude 10° 01:10:58 10° 331° (NNW) 3,654 6.6 -36.1°
Maximum altitude 01:20:10 88° 62° (ENE) 1,879 4.2 -36.3°
Enters shadow 01:21:38 73° 146° (SE) 2,013 4.2 -36.3°
